QPF
0.00 0.01 0.03 0.06 0.07 0.07 0.09 0.08 0.07 0.05 0.04 0.02 0.01 0.01 0.01 0.00 0.00 0.00 0.00 0.00 0.00 0.00 0.00 0.00 0.00 0.00 0.00 0.00 0.00 0.00 0.00 0.00 0.00 0.00 0.00 0.00 0.00 0.00 0.01 0.01 0.01 0.01 0.01 0.01
0.00 0.01 0.03 0.05 0.08 0.07 0.06 0.03 0.02 0.01 0.01 0.00 0.00 0.00 0.00 0.00 0.00 0.00 0.00 0.00 0.00 0.00 0.00 0.00 0.00 0.00 0.00 0.00 0.00 0.00 0.00 0.00 0.00 0.00 0.00 0.00 0.00 0.00 0.01 0.01 0.01 0.01 0.01 0.00
0.00 0.00 0.01 0.04 0.06 0.03 0.01 0.01 0.00 0.00 0.00 0.00 0.00 0.00 0.00 0.00 0.00 0.00 0.00 0.00 0.00 0.00 0.00 0.00 0.00 0.00 0.00 0.00 0.00 0.00 0.00 0.00 0.00 0.00 0.00 0.00 0.00 0.01 0.01 0.01 0.01 0.01 0.01 0.01
0.00 0.00 0.03 0.03 0.02 0.01 0.00 0.00 0.00 0.00 0.00 0.00 0.00 0.00 0.00 0.00 0.00 0.00 0.00 0.00 0.00 0.00 0.00 0.00 0.00 0.00 0.00 0.00 0.00 0.00 0.00 0.01 0.01 0.01 0.01 0.00 0.01 0.01 0.01 0.01 0.01 0.01 0.01 0.01
0.00 0.00 0.03 0.02 0.01 0.00 0.00 0.00 0.00 0.00 0.00 0.00 0.00 0.00 0.00 0.00 0.00 0.00 0.00 0.00 0.00 0.00 0.00 0.00 0.00 0.00 0.00 0.00 0.00 0.01 0.01 0.01 0.01 0.01 0.01 0.01 0.01 0.01 0.01 0.01 0.01 0.01 0.02 0.01
0.00 0.00 0.01 0.01 0.00 0.00 0.00 0.00 0.00 0.00 0.00 0.00 0.00 0.00 0.00 0.00 0.00 0.00 0.00 0.00 0.00 0.00 0.00 0.00 0.00 0.00 0.01 0.01 0.01 0.01 0.01 0.01 0.01 0.01 0.01 0.01 0.01 0.01 0.01 0.01 0.01 0.01 0.02 0.02
0.00 0.00 0.01 0.00 0.00 0.00 0.00 0.00 0.00 0.00 0.00 0.00 0.00 0.00 0.00 0.00 0.00 0.00 0.00 0.00 0.00 0.00 0.00 0.00 0.00 0.01 0.02 0.02 0.02 0.01 0.01 0.01 0.01 0.02 0.02 0.01 0.01 0.01 0.01 0.01 0.01 0.01 0.01 0.02
0.00 0.00 0.00 0.00 0.00 0.00 0.00 0.00 0.00 0.00 0.00 0.00 0.00 0.00 0.00 0.00 0.00 0.00 0.00 0.00 0.00 0.00 0.00 0.00 0.01 0.02 0.02 0.02 0.02 0.02 0.02 0.02 0.02 0.02 0.02 0.01 0.02 0.02 0.02 0.01 0.01 0.01 0.02 0.02
0.00 0.00 0.00 0.00 0.00 0.00 0.00 0.00 0.00 0.00 0.00 0.00 0.00 0.00 0.00 0.00 0.00 0.00 0.00 0.00 0.00 0.01 0.01 0.01 0.02 0.03 0.03 0.03 0.02 0.03 0.02 0.02 0.01 0.02 0.02 0.02 0.02 0.02 0.02 0.02 0.02 0.02 0.02 0.03
0.00 0.00 0.00 0.00 0.00 0.00 0.00 0.00 0.00 0.00 0.00 0.00 0.00 0.00 0.00 0.00 0.00 0.00 0.00 0.00 0.01 0.02 0.02 0.03 0.03 0.03 0.03 0.03 0.03 0.03 0.02 0.02 0.02 0.02 0.01 0.02 0.02 0.02 0.02 0.02 0.02 0.02 0.02 0.02
0.00 0.00 0.00 0.00 0.00 0.00 0.00 0.00 0.00 0.00 0.00 0.00 0.00 0.00 0.00 0.00 0.00 0.00 0.01 0.01 0.02 0.03 0.05 0.04 0.04 0.04 0.04 0.04 0.04 0.03 0.03 0.02 0.02 0.02 0.02 0.02 0.02 0.02 0.02 0.02 0.01 0.01 0.01 0.01
0.00 0.00 0.00 0.00 0.00 0.00 0.00 0.00 0.00 0.00 0.00 0.00 0.00 0.00 0.00 0.00 0.01 0.01 0.01 0.02 0.04 0.05 0.06 0.05 0.06 0.05 0.04 0.04 0.04 0.05 0.04 0.03 0.03 0.03 0.02 0.02 0.02 0.02 0.01 0.01 0.01 0.00 0.01 0.01
0.00 0.00 0.00 0.00 0.00 0.00 0.00 0.00 0.00 0.00 0.00 0.00 0.00 0.00 0.00 0.01 0.01 0.01 0.02 0.03 0.05 0.06 0.07 0.07 0.06 0.05 0.05 0.05 0.05 0.05 0.05 0.05 0.04 0.03 0.03 0.03 0.03 0.03 0.02 0.01 0.01 0.01 0.01 0.01
0.00 0.00 0.00 0.00 0.00 0.00 0.00 0.00 0.00 0.00 0.00 0.00 0.00 0.00 0.00 0.01 0.01 0.02 0.02 0.04 0.05 0.06 0.07 0.06 0.06 0.05 0.05 0.05 0.05 0.05 0.05 0.05 0.05 0.04 0.03 0.03 0.03 0.03 0.03 0.03 0.02 0.02 0.01 0.01
0.00 0.00 0.00 0.00 0.00 0.00 0.00 0.00 0.00 0.00 0.00 0.00 0.00 0.00 0.01 0.01 0.02 0.02 0.03 0.04 0.05 0.06 0.07 0.06 0.05 0.05 0.05 0.05 0.04 0.05 0.04 0.04 0.04 0.03 0.03 0.03 0.03 0.04 0.04 0.03 0.02 0.02 0.02 0.02
0.00 0.00 0.00 0.00 0.00 0.00 0.00 0.00 0.00 0.00 0.00 0.00 0.00 0.00 0.01 0.01 0.01 0.01 0.02 0.04 0.06 0.08 0.08 0.07 0.06 0.05 0.05 0.05 0.05 0.04 0.03 0.04 0.04 0.03 0.03 0.03 0.03 0.03 0.03 0.03 0.03 0.03 0.03 0.02
0.00 0.00 0.00 0.00 0.00 0.00 0.00 0.00 0.00 0.00 0.00 0.00 0.00 0.00 0.01 0.01 0.01 0.02 0.03 0.04 0.05 0.06 0.07 0.08 0.07 0.05 0.04 0.05 0.06 0.05 0.04 0.04 0.04 0.04 0.03 0.04 0.04 0.03 0.03 0.03 0.03 0.03 0.03 0.02
0.00 0.00 0.00 0.00 0.00 0.00 0.00 0.00 0.00 0.00 0.00 0.00 0.00 0.00 0.01 0.01 0.02 0.03 0.03 0.04 0.04 0.03 0.05 0.07 0.06 0.05 0.04 0.05 0.05 0.05 0.05 0.06 0.05 0.05 0.05 0.05 0.05 0.05 0.03 0.02 0.03 0.03 0.02 0.02
0.00 0.00 0.00 0.00 0.00 0.00 0.00 0.00 0.00 0.00 0.00 0.00 0.00 0.00 0.01 0.01 0.02 0.03 0.03 0.04 0.04 0.04 0.04 0.05 0.05 0.05 0.05 0.05 0.05 0.04 0.05 0.06 0.06 0.06 0.06 0.05 0.04 0.04 0.05 0.04 0.03 0.03 0.03 0.02
0.00 0.00 0.00 0.00 0.00 0.00 0.00 0.00 0.00 0.00 0.00 0.00 0.00 0.00 0.00 0.01 0.02 0.03 0.03 0.04 0.04 0.05 0.04 0.04 0.04 0.04 0.04 0.05 0.04 0.04 0.05 0.05 0.05 0.05 0.05 0.05 0.05 0.05 0.05 0.03 0.02 0.02 0.02 0.02
0.00 0.00 0.00 0.00 0.00 0.00 0.00 0.00 0.00 0.00 0.00 0.00 0.00 0.00 0.00 0.01 0.02 0.03 0.04 0.04 0.03 0.02 0.03 0.04 0.04 0.03 0.04 0.05 0.05 0.06 0.06 0.06 0.05 0.05 0.06 0.06 0.06 0.05 0.05 0.04 0.03 0.02 0.02 0.02
0.00 0.00 0.00 0.00 0.00 0.00 0.00 0.00 0.00 0.00 0.00 0.00 0.00 0.00 0.00 0.01 0.02 0.02 0.03 0.04 0.03 0.02 0.02 0.03 0.04 0.04 0.04 0.05 0.05 0.07 0.07 0.07 0.06 0.05 0.06 0.06 0.05 0.04 0.04 0.03 0.03 0.02 0.02 0.01
0.00 0.00 0.00 0.00 0.00 0.00 0.00 0.00 0.00 0.00 0.00 0.00 0.00 0.00 0.00 0.01 0.02 0.03 0.04 0.03 0.02 0.02 0.01 0.02 0.03 0.03 0.04 0.04 0.04 0.05 0.05 0.05 0.05 0.05 0.05 0.05 0.05 0.04 0.03 0.02 0.02 0.01 0.01 0.01
0.00 0.00 0.00 0.00 0.00 0.00 0.00 0.00 0.00 0.00 0.00 0.00 0.00 0.00 0.00 0.01 0.01 0.02 0.03 0.03 0.02 0.02 0.01 0.01 0.01 0.02 0.03 0.03 0.03 0.03 0.04 0.05 0.05 0.04 0.04 0.04 0.04 0.03 0.03 0.03 0.02 0.03 0.02 0.02
0.00 0.00 0.00 0.00 0.00 0.00 0.00 0.00 0.00 0.00 0.00 0.00 0.00 0.00 0.00 0.00 0.01 0.01 0.01 0.02 0.02 0.01 0.01 0.01 0.01 0.02 0.02 0.02 0.03 0.04 0.04 0.04 0.05 0.05 0.05 0.04 0.04 0.04 0.04 0.03 0.03 0.04 0.04 0.05
0.00 0.00 0.00 0.00 0.00 0.00 0.00 0.00 0.00 0.00 0.00 0.00 0.00 0.00 0.00 0.00 0.00 0.00 0.01 0.01 0.01 0.01 0.01 0.01 0.01 0.01 0.01 0.02 0.03 0.04 0.04 0.04 0.05 0.05 0.06 0.06 0.06 0.06 0.05 0.05 0.05 0.05 0.06 0.06
0.00 0.00 0.00 0.00 0.00 0.00 0.00 0.00 0.00 0.00 0.00 0.00 0.00 0.00 0.00 0.00 0.00 0.00 0.00 0.01 0.01 0.01 0.01 0.01 0.02 0.02 0.02 0.02 0.03 0.03 0.03 0.04 0.05 0.05 0.06 0.06 0.07 0.07 0.06 0.06 0.08 0.07 0.05 0.04
MSLP
1013.30 1013.71 1014.13 1014.53 1014.90 1015.23 1015.50 1015.69 1015.80 1015.81 1015.73 1015.56 1015.32 1015.01 1014.65 1014.24 1013.80 1013.33 1012.84 1012.34 1011.83 1011.33 1010.84 1010.39 1009.96 1009.59 1009.26 1008.98 1008.75 1008.55 1008.38 1008.24 1008.10 1007.97 1007.86 1007.75 1007.66 1007.59 1007.54 1007.50 1007.45 1007.40 1007.31 1007.18
1014.10 1014.58 1015.00 1015.35 1015.62 1015.80 1015.90 1015.93 1015.89 1015.80 1015.65 1015.45 1015.20 1014.91 1014.57 1014.17 1013.71 1013.20 1012.64 1012.05 1011.45 1010.85 1010.28 1009.75 1009.28 1008.88 1008.55 1008.28 1008.05 1007.85 1007.68 1007.51 1007.35 1007.19 1007.05 1006.92 1006.82 1006.74 1006.70 1006.68 1006.66 1006.63 1006.57 1006.46
1014.89 1015.40 1015.80 1016.08 1016.25 1016.30 1016.27 1016.16 1015.99 1015.80 1015.57 1015.32 1015.05 1014.73 1014.37 1013.94 1013.43 1012.86 1012.23 1011.56 1010.87 1010.19 1009.56 1008.99 1008.50 1008.09 1007.76 1007.50 1007.28 1007.09 1006.91 1006.73 1006.55 1006.37 1006.21 1006.07 1005.97 1005.90 1005.87 1005.87 1005.88 1005.87 1005.82 1005.72
1015.64 1016.11 1016.46 1016.66 1016.73 1016.68 1016.53 1016.30 1016.04 1015.75 1015.45 1015.15 1014.83 1014.47 1014.06 1013.58 1013.02 1012.38 1011.68 1010.94 1010.19 1009.46 1008.79 1008.20 1007.69 1007.29 1006.97 1006.71 1006.50 1006.31 1006.12 1005.93 1005.74 1005.55 1005.38 1005.24 1005.15 1005.10 1005.10 1005.12 1005.14 1005.15 1005.11 1005.01
1016.28 1016.67 1016.93 1017.05 1017.03 1016.88 1016.64 1016.33 1015.99 1015.63 1015.27 1014.91 1014.54 1014.14 1013.68 1013.15 1012.54 1011.86 1011.11 1010.32 1009.53 1008.78 1008.09 1007.48 1006.98 1006.57 1006.24 1005.98 1005.77 1005.56 1005.36 1005.16 1004.96 1004.76 1004.60 1004.48 1004.40 1004.38 1004.40 1004.45 1004.49 1004.51 1004.47 1004.36
1016.76 1017.05 1017.21 1017.23 1017.12 1016.90 1016.59 1016.22 1015.83 1015.43 1015.03 1014.64 1014.23 1013.79 1013.29 1012.73 1012.09 1011.37 1010.60 1009.79 1008.99 1008.22 1007.53 1006.92 1006.40 1005.98 1005.64 1005.37 1005.12 1004.89 1004.67 1004.44 1004.23 1004.04 1003.88 1003.78 1003.73 1003.74 1003.79 1003.86 1003.92 1003.94 1003.90 1003.79
1017.05 1017.21 1017.27 1017.21 1017.03 1016.75 1016.41 1016.01 1015.60 1015.18 1014.76 1014.35 1013.92 1013.46 1012.94 1012.37 1011.71 1010.99 1010.21 1009.41 1008.61 1007.84 1007.14 1006.52 1005.99 1005.55 1005.18 1004.86 1004.57 1004.30 1004.05 1003.80 1003.57 1003.37 1003.23 1003.15 1003.13 1003.17 1003.24 1003.33 1003.41 1003.44 1003.40 1003.28
1017.12 1017.18 1017.15 1017.02 1016.80 1016.50 1016.14 1015.74 1015.32 1014.91 1014.49 1014.07 1013.64 1013.18 1012.66 1012.09 1011.44 1010.72 1009.96 1009.17 1008.38 1007.62 1006.91 1006.28 1005.72 1005.24 1004.82 1004.44 1004.10 1003.79 1003.49 1003.21 1002.97 1002.77 1002.64 1002.57 1002.58 1002.64 1002.74 1002.84 1002.93 1002.96 1002.92 1002.81
1016.99 1016.97 1016.89 1016.72 1016.48 1016.18 1015.83 1015.45 1015.05 1014.65 1014.25 1013.84 1013.42 1012.96 1012.46 1011.89 1011.25 1010.56 1009.81 1009.04 1008.26 1007.50 1006.78 1006.12 1005.53 1004.99 1004.51 1004.08 1003.68 1003.31 1002.96 1002.66 1002.40 1002.21 1002.08 1002.03 1002.05 1002.13 1002.24 1002.36 1002.45 1002.49 1002.47 1002.37
1016.71 1016.66 1016.55 1016.37 1016.14 1015.85 1015.53 1015.17 1014.81 1014.43 1014.05 1013.66 1013.25 1012.80 1012.30 1011.75 1011.13 1010.45 1009.72 1008.95 1008.18 1007.41 1006.68 1005.98 1005.34 1004.75 1004.20 1003.71 1003.25 1002.83 1002.45 1002.13 1001.86 1001.67 1001.55 1001.51 1001.54 1001.63 1001.75 1001.87 1001.97 1002.02 1002.02 1001.94
1016.35 1016.29 1016.18 1016.02 1015.82 1015.56 1015.27 1014.95 1014.61 1014.26 1013.89 1013.51 1013.11 1012.67 1012.17 1011.63 1011.02 1010.35 1009.63 1008.87 1008.09 1007.30 1006.54 1005.80 1005.11 1004.46 1003.85 1003.30 1002.79 1002.33 1001.93 1001.59 1001.33 1001.14 1001.03 1001.00 1001.04 1001.13 1001.25 1001.38 1001.49 1001.57 1001.59 1001.55
1015.98 1015.94 1015.85 1015.72 1015.54 1015.32 1015.06 1014.77 1014.46 1014.13 1013.77 1013.40 1012.99 1012.55 1012.06 1011.51 1010.90 1010.24 1009.51 1008.75 1007.95 1007.14 1006.34 1005.56 1004.81 1004.10 1003.45 1002.84 1002.30 1001.82 1001.40 1001.06 1000.80 1000.63 1000.53 1000.51 1000.56 1000.66 1000.79 1000.92 1001.05 1001.15 1001.21 1001.23
1015.65 1015.63 1015.57 1015.47 1015.33 1015.14 1014.91 1014.64 1014.35 1014.02 1013.67 1013.30 1012.89 1012.44 1011.95 1011.40 1010.79 1010.11 1009.38 1008.60 1007.78 1006.94 1006.10 1005.27 1004.47 1003.71 1003.00 1002.36 1001.79 1001.29 1000.88 1000.55 1000.30 1000.15 1000.07 1000.07 1000.13 1000.24 1000.38 1000.53 1000.67 1000.81 1000.92 1001.01
1015.37 1015.38 1015.35 1015.28 1015.16 1015.00 1014.79 1014.54 1014.26 1013.94 1013.59 1013.22 1012.81 1012.36 1011.86 1011.30 1010.68 1010.00 1009.26 1008.45 1007.61 1006.73 1005.84 1004.97 1004.11 1003.31 1002.56 1001.89 1001.30 1000.79 1000.38 1000.07 999.85 999.71 999.66 999.68 999.76 999.89 1000.04 1000.21 1000.39 1000.56 1000.73 1000.89
1015.16 1015.18 1015.17 1015.12 1015.02 1014.88 1014.69 1014.46 1014.18 1013.87 1013.53 1013.16 1012.76 1012.31 1011.81 1011.25 1010.63 1009.94 1009.18 1008.35 1007.47 1006.56 1005.63 1004.70 1003.80 1002.94 1002.16 1001.45 1000.84 1000.34 999.93 999.64 999.44 999.33 999.31 999.36 999.46 999.61 999.79 999.99 1000.21 1000.42 1000.64 1000.87
1014.97 1015.00 1015.00 1014.96 1014.89 1014.76 1014.59 1014.37 1014.12 1013.83 1013.50 1013.14 1012.74 1012.30 1011.81 1011.26 1010.64 1009.94 1009.17 1008.32 1007.41 1006.46 1005.48 1004.50 1003.55 1002.65 1001.82 1001.09 1000.46 999.94 999.55 999.26 999.09 999.01 999.02 999.09 999.23 999.41 999.62 999.86 1000.11 1000.37 1000.64 1000.91
1014.78 1014.81 1014.82 1014.80 1014.74 1014.63 1014.48 1014.29 1014.05 1013.79 1013.48 1013.15 1012.77 1012.35 1011.88 1011.34 1010.72 1010.02 1009.23 1008.37 1007.43 1006.44 1005.41 1004.39 1003.39 1002.44 1001.57 1000.80 1000.15 999.62 999.22 998.95 998.79 998.73 998.77 998.88 999.05 999.26 999.50 999.77 1000.05 1000.35 1000.66 1000.97
1014.57 1014.60 1014.62 1014.61 1014.57 1014.48 1014.35 1014.19 1013.99 1013.75 1013.48 1013.18 1012.83 1012.44 1011.98 1011.45 1010.84 1010.14 1009.35 1008.46 1007.50 1006.47 1005.41 1004.34 1003.29 1002.30 1001.39 1000.59 999.91 999.37 998.96 998.69 998.54 998.51 998.56 998.70 998.89 999.13 999.40 999.70 1000.01 1000.33 1000.66 1000.99
1014.33 1014.37 1014.39 1014.40 1014.37 1014.31 1014.21 1014.08 1013.91 1013.71 1013.48 1013.21 1012.89 1012.52 1012.09 1011.58 1010.98 1010.28 1009.48 1008.58 1007.59 1006.54 1005.45 1004.35 1003.26 1002.24 1001.29 1000.46 999.76 999.21 998.79 998.51 998.37 998.34 998.41 998.56 998.77 999.03 999.32 999.63 999.95 1000.28 1000.60 1000.93
1014.07 1014.12 1014.16 1014.17 1014.17 1014.13 1014.06 1013.95 1013.82 1013.65 1013.45 1013.22 1012.93 1012.59 1012.18 1011.68 1011.09 1010.39 1009.59 1008.68 1007.69 1006.62 1005.51 1004.39 1003.29 1002.24 1001.28 1000.44 999.72 999.15 998.73 998.44 998.29 998.26 998.33 998.49 998.70 998.96 999.25 999.56 999.87 1000.19 1000.50 1000.80
1013.82 1013.88 1013.93 1013.96 1013.97 1013.95 1013.90 1013.82 1013.72 1013.58 1013.41 1013.20 1012.94 1012.62 1012.22 1011.74 1011.16 1010.47 1009.67 1008.77 1007.77 1006.71 1005.61 1004.49 1003.39 1002.35 1001.39 1000.54 999.82 999.25 998.82 998.53 998.37 998.33 998.39 998.52 998.73 998.97 999.24 999.52 999.81 1000.10 1000.37 1000.64
1013.61 1013.68 1013.74 1013.78 1013.80 1013.79 1013.76 1013.70 1013.61 1013.50 1013.35 1013.17 1012.92 1012.62 1012.24 1011.77 1011.20 1010.52 1009.74 1008.85 1007.88 1006.84 1005.76 1004.67 1003.60 1002.58 1001.65 1000.82 1000.12 999.55 999.12 998.82 998.65 998.59 998.62 998.73 998.90 999.11 999.34 999.59 999.84 1000.08 1000.30 1000.51
1013.43 1013.52 1013.59 1013.64 1013.66 1013.66 1013.64 1013.59 1013.52 1013.43 1013.30 1013.13 1012.91 1012.62 1012.25 1011.80 1011.25 1010.59 1009.83 1008.98 1008.04 1007.05 1006.02 1004.98 1003.96 1002.99 1002.10 1001.31 1000.64 1000.09 999.67 999.37 999.18 999.10 999.10 999.17 999.29 999.45 999.63 999.82 1000.01 1000.20 1000.37 1000.52
1013.28 1013.39 1013.46 1013.52 1013.55 1013.55 1013.54 1013.51 1013.45 1013.37 1013.26 1013.11 1012.91 1012.64 1012.30 1011.87 1011.35 1010.72 1010.01 1009.20 1008.32 1007.38 1006.42 1005.45 1004.50 1003.61 1002.78 1002.05 1001.42 1000.90 1000.49 1000.19 999.99 999.88 999.84 999.87 999.94 1000.03 1000.15 1000.28 1000.41 1000.53 1000.64 1000.75
1013.12 1013.25 1013.34 1013.41 1013.45 1013.46 1013.46 1013.45 1013.41 1013.36 1013.27 1013.15 1012.97 1012.73 1012.42 1012.02 1011.53 1010.96 1010.29 1009.54 1008.73 1007.87 1006.98 1006.10 1005.24 1004.43 1003.68 1003.01 1002.44 1001.96 1001.58 1001.28 1001.07 1000.94 1000.86 1000.84 1000.85 1000.88 1000.93 1001.00 1001.06 1001.13 1001.19 1001.24
1012.90 1013.06 1013.18 1013.26 1013.33 1013.37 1013.39 1013.40 1013.40 1013.38 1013.33 1013.24 1013.10 1012.90 1012.62 1012.27 1011.83 1011.30 1010.69 1010.02 1009.28 1008.50 1007.71 1006.92 1006.15 1005.43 1004.76 1004.17 1003.66 1003.23 1002.87 1002.60 1002.38 1002.22 1002.12 1002.05 1002.01 1001.98 1001.98 1001.98 1001.99 1002.00 1002.02 1002.04
1012.59 1012.78 1012.94 1013.07 1013.16 1013.24 1013.30 1013.36 1013.39 1013.42 1013.41 1013.37 1013.28 1013.12 1012.90 1012.60 1012.21 1011.75 1011.21 1010.60 1009.94 1009.25 1008.55 1007.85 1007.18 1006.55 1005.97 1005.46 1005.01 1004.63 1004.31 1004.05 1003.84 1003.68 1003.54 1003.44 1003.36 1003.29 1003.24 1003.19 1003.16 1003.13 1003.12 1003.11
Thickness
5724 5726 5720 5712 5709 5706 5695 5686 5672 5669 5661 5658 5658 5655 5652 5647 5642 5637 5632 5627 5621 5615 5610 5605 5600 5595 5591 5587 5585 5582 5578 5574 5572 5571 5569 5568 5568 5568 5569 5569 5571 5573 5575 5577
5714 5719 5715 5703 5701 5698 5692 5685 5675 5666 5656 5657 5654 5649 5643 5636 5632 5626 5620 5615 5611 5605 5599 5593 5587 5583 5578 5573 5570 5567 5563 5561 5561 5559 5558 5557 5556 5557 5557 5556 5557 5557 5559 5561
5702 5712 5706 5681 5686 5685 5677 5671 5664 5649 5647 5649 5643 5639 5633 5628 5622 5615 5609 5605 5599 5593 5587 5581 5576 5571 5565 5561 5558 5554 5552 5551 5551 5550 5549 5549 5549 5549 5548 5547 5547 5546 5548 5549
5695 5693 5672 5680 5694 5687 5671 5661 5658 5651 5645 5640 5634 5631 5628 5621 5613 5606 5601 5596 5590 5583 5577 5572 5566 5560 5555 5550 5546 5543 5541 5540 5541 5541 5542 5542 5542 5541 5541 5540 5540 5540 5541 5542
5682 5676 5673 5680 5683 5678 5666 5654 5652 5644 5639 5636 5632 5625 5619 5615 5607 5599 5592 5585 5579 5573 5566 5560 5553 5548 5542 5538 5534 5532 5531 5530 5531 5531 5532 5533 5533 5533 5534 5534 5534 5535 5536 5537
5678 5671 5659 5663 5679 5682 5666 5646 5647 5640 5631 5625 5617 5602 5602 5603 5595 5587 5580 5573 5566 5560 5554 5547 5541 5535 5529 5526 5523 5521 5520 5520 5520 5521 5521 5523 5525 5526 5527 5528 5530 5531 5532 5533
5668 5663 5658 5669 5675 5666 5635 5628 5637 5631 5621 5613 5602 5595 5596 5592 5584 5576 5568 5561 5554 5547 5540 5534 5529 5523 5518 5514 5511 5510 5510 5509 5510 5511 5512 5514 5517 5519 5521 5522 5524 5525 5527 5529
5660 5650 5650 5668 5662 5644 5633 5634 5629 5624 5617 5609 5602 5596 5589 5581 5573 5565 5557 5550 5543 5535 5529 5524 5518 5512 5508 5504 5502 5500 5499 5499 5500 5501 5504 5509 5510 5512 5514 5516 5518 5520 5521 5523
5664 5657 5661 5662 5655 5649 5640 5632 5627 5619 5613 5605 5596 5587 5579 5571 5562 5554 5546 5539 5532 5525 5519 5514 5507 5501 5498 5496 5494 5492 5491 5491 5492 5494 5496 5499 5502 5505 5507 5510 5512 5515 5517 5518
5668 5666 5664 5660 5655 5650 5643 5634 5627 5618 5609 5598 5587 5580 5571 5562 5554 5546 5538 5530 5524 5517 5511 5506 5501 5496 5492 5490 5487 5485 5484 5484 5485 5486 5489 5492 5495 5499 5502 5505 5507 5510 5513 5515
5664 5665 5662 5657 5650 5645 5639 5631 5622 5612 5603 5592 5582 5572 5564 5555 5547 5539 5531 5524 5517 5510 5504 5500 5496 5492 5489 5486 5483 5480 5479 5480 5481 5482 5484 5486 5489 5493 5498 5502 5505 5508 5510 5513
5656 5657 5650 5646 5645 5641 5632 5623 5615 5605 5596 5587 5577 5567 5559 5550 5542 5534 5527 5520 5513 5507 5502 5497 5492 5489 5486 5483 5480 5477 5476 5477 5477 5478 5480 5483 5485 5490 5495 5499 5503 5507 5509 5511
5667 5665 5655 5650 5644 5637 5628 5619 5611 5601 5591 5582 5574 5564 5555 5547 5540 5532 5525 5518 5512 5506 5501 5497 5492 5489 5486 5483 5480 5477 5476 5477 5477 5478 5479 5481 5483 5486 5490 5495 5500 5504 5506 5508
5673 5665 5655 5647 5639 5632 5624 5616 5606 5597 5588 5579 5570 5562 5554 5545 5539 5532 5525 5518 5512 5507 5502 5499 5495 5491 5488 5485 5482 5480 5479 5480 5480 5479 5480 5481 5483 5486 5490 5492 5496 5499 5502 5505
5669 5662 5651 5644 5636 5628 5620 5611 5602 5593 5585 5577 5569 5560 5552 5545 5538 5532 5526 5520 5514 5510 5506 5502 5498 5495 5492 5489 5486 5484 5483 5483 5483 5483 5483 5484 5485 5488 5491 5494 5496 5497 5498 5499
5665 5657 5649 5640 5631 5623 5615 5607 5597 5589 5582 5574 5566 5559 5552 5545 5539 5533 5528 5523 5518 5513 5509 5505 5502 5498 5496 5494 5492 5490 5489 5490 5490 5488 5488 5489 5489 5491 5493 5495 5497 5498 5499 5499
5659 5650 5643 5634 5627 5619 5610 5602 5594 5586 5579 5572 5564 5558 5552 5547 5542 5537 5532 5528 5522 5518 5514 5510 5507 5505 5503 5501 5498 5497 5496 5495 5497 5496 5495 5494 5495 5496 5497 5498 5500 5501 5502 5503
5659 5650 5641 5633 5623 5615 5608 5601 5593 5585 5577 5571 5564 5558 5552 5547 5543 5539 5536 5533 5530 5527 5523 5518 5515 5514 5512 5509 5507 5505 5504 5503 5502 5502 5502 5502 5501 5501 5502 5502 5504 5505 5505 5505
5655 5647 5639 5631 5623 5614 5606 5599 5591 5583 5577 5570 5563 5557 5552 5548 5544 5541 5539 5537 5535 5533 5530 5527 5524 5523 5522 5520 5519 5516 5514 5513 5511 5510 5509 5509 5508 5507 5507 5508 5509 5510 5510 5510
5651 5645 5637 5630 5623 5614 5606 5599 5591 5583 5576 5569 5563 5557 5553 5550 5547 5545 5542 5540 5538 5535 5534 5534 5534 5533 5532 5530 5529 5527 5525 5523 5521 5519 5518 5516 5515 5514 5514 5515 5516 5516 5517 5517
5648 5642 5635 5627 5620 5613 5606 5598 5589 5582 5575 5569 5562 5557 5553 5551 5549 5547 5545 5545 5544 5542 5542 5543 5543 5542 5541 5539 5539 5537 5535 5534 5532 5530 5528 5527 5525 5524 5523 5524 5524 5525 5525 5526
5645 5638 5632 5625 5617 5610 5603 5596 5588 5581 5574 5568 5563 5558 5554 5552 5551 5549 5547 5546 5546 5546 5548 5549 5549 5549 5549 5550 5549 5547 5546 5544 5542 5540 5538 5537 5536 5535 5534 5534 5534 5535 5535 5536
5642 5636 5629 5622 5615 5607 5601 5593 5586 5580 5573 5567 5562 5558 5554 5551 5550 5549 5549 5549 5550 5550 5552 5553 5552 5554 5557 5558 5557 5555 5554 5552 5550 5549 5548 5547 5545 5544 5544 5544 5544 5544 5544 5545
5639 5633 5626 5620 5613 5605 5597 5590 5584 5577 5571 5566 5561 5557 5554 5552 5551 5549 5548 5549 5551 5552 5555 5555 5556 5558 5562 5562 5561 5560 5559 5558 5557 5556 5555 5554 5553 5552 5551 5551 5552 5552 5552 5553
5637 5630 5624 5616 5609 5601 5595 5588 5581 5575 5569 5563 5560 5556 5553 5551 5548 5548 5549 5550 5552 5553 5556 5557 5558 5560 5562 5563 5563 5562 5562 5561 5561 5561 5561 5559 5558 5557 5556 5556 5557 5557 5557 5558
5633 5625 5619 5613 5606 5599 5592 5585 5577 5572 5566 5561 5557 5554 5552 5550 5548 5548 5548 5550 5551 5552 5554 5556 5557 5559 5561 5561 5562 5562 5562 5563 5564 5565 5564 5563 5563 5562 5561 5560 5560 5560 5560 5561
5629 5622 5614 5608 5602 5596 5589 5582 5575 5569 5563 5558 5554 5551 5549 5547 5546 5545 5546 5547 5548 5549 5551 5552 5553 5555 5556 5558 5559 5560 5560 5562 5563 5563 5564 5564 5563 5562 5562 5562 5561 5560 5561 5561